Wetterdaten: Woche 23.11.15 - 29.11.15 (KW48)
Datum Zeit Temperatur Luftfeuchte Luftdruck Niederschlag Windrichtung Sonnenschein Solar Wind
23.11.2015 00:00 -0,6 C 95 % 1015,0 hPa 0,4 l/m W-SW 0,00 h 0 W/m 10,9 km/h (2 Bft)
23.11.2015 01:00 -0,5 C 95 % 1015,5 hPa 0,0 l/m W-SW 0,00 h 0 W/m 13,2 km/h (3 Bft)
23.11.2015 02:00 -0,6 C 96 % 1015,9 hPa 0,0 l/m W-SW 0,00 h 0 W/m 9,9 km/h (2 Bft)
23.11.2015 03:00 -0,7 C 96 % 1016,4 hPa 0,0 l/m W-SW 0,00 h 0 W/m 10,5 km/h (2 Bft)
23.11.2015 04:00 -1,1 C 95 % 1016,9 hPa 0,0 l/m W-SW 0,00 h 0 W/m 7,2 km/h (2 Bft)
23.11.2015 05:00 -1,4 C 96 % 1017,5 hPa 0,0 l/m W-SW 0,00 h 0 W/m 12,0 km/h (2 Bft)
23.11.2015 06:00 -1,7 C 95 % 1018,0 hPa 0,0 l/m W-SW 0,00 h 0 W/m 5,2 km/h (1 Bft)
23.11.2015 07:00 -1,9 C 95 % 1018,9 hPa 0,0 l/m W-SW 0,00 h 5 W/m 4,8 km/h (1 Bft)
23.11.2015 08:00 -2,2 C 96 % 1020,5 hPa 0,0 l/m W-SW 0,00 h 9 W/m 10,2 km/h (2 Bft)
23.11.2015 09:00 -1,6 C 96 % 1021,8 hPa 0,0 l/m W 0,00 h 22 W/m 7,4 km/h (2 Bft)
23.11.2015 10:00 -0,7 C 96 % 1022,5 hPa 0,0 l/m W 0,00 h 47 W/m 3,6 km/h (1 Bft)
23.11.2015 11:00 -0,0 C 96 % 1022,8 hPa 0,0 l/m W 0,33 h 201 W/m 5,2 km/h (1 Bft)
23.11.2015 12:00 1,5 C 93 % 1022,7 hPa 0,0 l/m W-SW 1,00 h 349 W/m 6,4 km/h (2 Bft)
23.11.2015 13:00 2,9 C 85 % 1022,8 hPa 0,0 l/m W-SW 1,00 h 332 W/m 4,9 km/h (1 Bft)
23.11.2015 14:00 3,4 C 77 % 1022,9 hPa 0,0 l/m W-SW 1,00 h 243 W/m 9,0 km/h (2 Bft)
23.11.2015 15:00 3,4 C 74 % 1023,2 hPa 0,0 l/m W-SW 0,58 h 91 W/m 2,9 km/h (1 Bft)
23.11.2015 16:00 2,0 C 78 % 1023,5 hPa 0,0 l/m N 0,00 h 11 W/m 0,0 km/h (0 Bft)
23.11.2015 17:00 0,3 C 82 % 1024,2 hPa 0,0 l/m N 0,00 h 0 W/m 0,0 km/h (0 Bft)
23.11.2015 18:00 -0,9 C 86 % 1024,8 hPa 0,0 l/m N 0,00 h 0 W/m 0,0 km/h (0 Bft)
23.11.2015 19:00 -1,4 C 88 % 1025,0 hPa 0,0 l/m N 0,00 h 0 W/m 0,5 km/h (0 Bft)
23.11.2015 20:00 -2,0 C 91 % 1025,0 hPa 0,0 l/m N 0,00 h 0 W/m 0,0 km/h (0 Bft)
23.11.2015 21:00 -2,6 C 91 % 1025,5 hPa 0,0 l/m N 0,00 h 0 W/m 0,0 km/h (0 Bft)
23.11.2015 22:00 -3,1 C 92 % 1025,4 hPa 0,0 l/m N 0,00 h 0 W/m 0,0 km/h (0 Bft)
23.11.2015 23:00 -3,5 C 92 % 1025,5 hPa 0,0 l/m N 0,00 h 0 W/m 0,0 km/h (0 Bft)
24.11.2015 00:00 -4,0 C 92 % 1025,5 hPa 0,0 l/m N 0,00 h 0 W/m 0,0 km/h (0 Bft)
24.11.2015 01:00 -4,4 C 93 % 1025,5 hPa 0,0 l/m N 0,00 h 0 W/m 0,0 km/h (0 Bft)
24.11.2015 02:00 -4,8 C 93 % 1025,5 hPa 0,0 l/m N 0,00 h 0 W/m 0,0 km/h (0 Bft)
24.11.2015 03:00 -5,0 C 93 % 1025,5 hPa 0,0 l/m N 0,00 h 0 W/m 0,0 km/h (0 Bft)
24.11.2015 04:00 -5,3 C 94 % 1025,3 hPa 0,0 l/m N 0,00 h 0 W/m 0,0 km/h (0 Bft)
24.11.2015 05:00 -5,7 C 94 % 1025,4 hPa 0,0 l/m N 0,00 h 0 W/m 0,0 km/h (0 Bft)
24.11.2015 06:00 -6,1 C 94 % 1025,4 hPa 0,0 l/m N 0,00 h 0 W/m 0,0 km/h (0 Bft)
24.11.2015 07:00 -6,6 C 94 % 1025,4 hPa 0,0 l/m N 0,00 h 8 W/m 0,0 km/h (0 Bft)
24.11.2015 08:00 -6,7 C 94 % 1025,5 hPa 0,0 l/m N 0,00 h 25 W/m 0,0 km/h (0 Bft)
24.11.2015 09:00 -5,8 C 95 % 1025,4 hPa 0,0 l/m N 0,00 h 54 W/m 0,0 km/h (0 Bft)
24.11.2015 10:00 -4,0 C 96 % 1025,1 hPa 0,0 l/m W-SW 0,00 h 72 W/m 0,7 km/h (0 Bft)
24.11.2015 11:00 -2,7 C 96 % 1024,6 hPa 0,0 l/m SW 0,00 h 93 W/m 8,3 km/h (2 Bft)
24.11.2015 12:00 -1,8 C 95 % 1023,7 hPa 0,0 l/m SW 0,25 h 188 W/m 8,8 km/h (2 Bft)
24.11.2015 13:00 -0,4 C 93 % 1023,0 hPa 0,0 l/m SW 0,75 h 222 W/m 10,1 km/h (2 Bft)
24.11.2015 14:00 0,5 C 89 % 1022,0 hPa 0,0 l/m SW 0,75 h 180 W/m 8,8 km/h (2 Bft)
24.11.2015 15:00 0,5 C 87 % 1021,3 hPa 0,0 l/m SW 0,33 h 71 W/m 7,0 km/h (2 Bft)
24.11.2015 16:00 -0,2 C 88 % 1020,6 hPa 0,0 l/m SW 0,08 h 17 W/m 1,2 km/h (1 Bft)
24.11.2015 17:00 -0,9 C 89 % 1020,1 hPa 0,0 l/m SW 0,00 h 0 W/m 4,1 km/h (1 Bft)
24.11.2015 18:00 -1,2 C 90 % 1019,5 hPa 0,0 l/m SW 0,00 h 0 W/m 10,6 km/h (2 Bft)
24.11.2015 19:00 -1,3 C 90 % 1019,1 hPa 0,0 l/m SW 0,00 h 0 W/m 11,7 km/h (2 Bft)
24.11.2015 20:00 -1,4 C 91 % 1018,3 hPa 0,0 l/m SW 0,00 h 0 W/m 9,3 km/h (2 Bft)
24.11.2015 21:00 -1,1 C 91 % 1017,5 hPa 0,0 l/m S-SW 0,00 h 0 W/m 13,3 km/h (3 Bft)
24.11.2015 22:00 -0,8 C 91 % 1016,6 hPa 0,0 l/m SW 0,00 h 0 W/m 9,0 km/h (2 Bft)
24.11.2015 23:00 -0,5 C 90 % 1015,4 hPa 0,0 l/m SW 0,00 h 0 W/m 14,2 km/h (3 Bft)
25.11.2015 00:00 -0,2 C 88 % 1014,3 hPa 0,0 l/m SW 0,00 h 0 W/m 14,1 km/h (3 Bft)
25.11.2015 01:00 -0,3 C 89 % 1013,5 hPa 0,0 l/m S-SW 0,00 h 0 W/m 8,8 km/h (2 Bft)
25.11.2015 02:00 0,2 C 90 % 1012,9 hPa 0,0 l/m SW 0,00 h 0 W/m 17,6 km/h (3 Bft)
25.11.2015 03:00 0,1 C 94 % 1012,3 hPa 0,2 l/m SW 0,00 h 0 W/m 12,2 km/h (2 Bft)
25.11.2015 04:00 0,1 C 95 % 1011,9 hPa 0,2 l/m SW 0,00 h 0 W/m 14,1 km/h (3 Bft)
25.11.2015 05:00 0,2 C 96 % 1011,4 hPa 0,2 l/m SW 0,00 h 0 W/m 13,6 km/h (3 Bft)
25.11.2015 06:00 0,3 C 96 % 1011,1 hPa 0,4 l/m SW 0,00 h 0 W/m 12,8 km/h (3 Bft)
25.11.2015 07:00 0,3 C 97 % 1010,8 hPa 0,6 l/m SW 0,00 h 0 W/m 7,2 km/h (2 Bft)
25.11.2015 08:00 0,3 C 97 % 1010,6 hPa 0,6 l/m SW 0,00 h 6 W/m 8,2 km/h (2 Bft)
25.11.2015 09:00 0,5 C 97 % 1010,4 hPa 0,4 l/m SW 0,00 h 13 W/m 8,3 km/h (2 Bft)
25.11.2015 10:00 0,6 C 97 % 1010,2 hPa 0,2 l/m SW 0,00 h 17 W/m 13,7 km/h (3 Bft)
25.11.2015 11:00 1,0 C 98 % 1009,8 hPa 0,2 l/m S-SW 0,00 h 44 W/m 8,5 km/h (2 Bft)
25.11.2015 12:00 1,8 C 98 % 1009,2 hPa 0,0 l/m SW 0,00 h 102 W/m 12,6 km/h (3 Bft)
25.11.2015 13:00 2,0 C 97 % 1008,4 hPa 0,0 l/m W-SW 0,17 h 122 W/m 12,1 km/h (2 Bft)
25.11.2015 14:00 2,5 C 97 % 1007,6 hPa 0,0 l/m W-SW 0,08 h 58 W/m 6,1 km/h (2 Bft)
25.11.2015 15:00 2,4 C 96 % 1007,2 hPa 0,0 l/m W-SW 0,08 h 62 W/m 7,2 km/h (2 Bft)
25.11.2015 16:00 1,8 C 95 % 1007,0 hPa 0,0 l/m W-SW 0,00 h 11 W/m 10,6 km/h (2 Bft)
25.11.2015 17:00 1,6 C 96 % 1007,1 hPa 0,0 l/m W-SW 0,00 h 0 W/m 5,6 km/h (1 Bft)
25.11.2015 18:00 1,3 C 96 % 1007,4 hPa 0,0 l/m N 0,00 h 0 W/m 0,0 km/h (0 Bft)
25.11.2015 19:00 1,4 C 96 % 1007,4 hPa 0,0 l/m W-SW 0,00 h 0 W/m 0,5 km/h (0 Bft)
25.11.2015 20:00 1,2 C 96 % 1007,4 hPa 0,0 l/m W-SW 0,00 h 0 W/m 2,7 km/h (1 Bft)
25.11.2015 21:00 1,2 C 97 % 1007,4 hPa 0,0 l/m W-SW 0,00 h 0 W/m 1,5 km/h (1 Bft)
25.11.2015 22:00 1,3 C 97 % 1007,4 hPa 0,0 l/m W-SW 0,00 h 0 W/m 4,7 km/h (1 Bft)
25.11.2015 23:00 1,3 C 97 % 1007,5 hPa 0,0 l/m W-SW 0,00 h 0 W/m 1,5 km/h (1 Bft)
26.11.2015 00:00 1,1 C 97 % 1007,6 hPa 0,0 l/m W-SW 0,00 h 0 W/m 0,5 km/h (0 Bft)
26.11.2015 01:00 0,9 C 97 % 1007,9 hPa 0,0 l/m N 0,00 h 0 W/m 0,0 km/h (0 Bft)
26.11.2015 02:00 0,9 C 97 % 1008,3 hPa 0,0 l/m N 0,00 h 0 W/m 0,0 km/h (0 Bft)
26.11.2015 03:00 0,9 C 97 % 1008,6 hPa 0,0 l/m N 0,00 h 0 W/m 1,6 km/h (1 Bft)
26.11.2015 04:00 1,0 C 97 % 1009,0 hPa 0,0 l/m W-SW 0,00 h 0 W/m 2,0 km/h (1 Bft)
26.11.2015 05:00 1,1 C 97 % 1009,7 hPa 0,0 l/m W-SW 0,00 h 0 W/m 5,1 km/h (1 Bft)
26.11.2015 06:00 1,0 C 97 % 1010,4 hPa 0,0 l/m N 0,00 h 0 W/m 2,3 km/h (1 Bft)
26.11.2015 07:00 0,8 C 97 % 1011,2 hPa 0,2 l/m W-SW 0,00 h 0 W/m 5,1 km/h (1 Bft)
26.11.2015 08:00 0,9 C 97 % 1012,1 hPa 0,0 l/m W-SW 0,00 h 24 W/m 5,2 km/h (1 Bft)
26.11.2015 09:00 1,2 C 98 % 1012,8 hPa 0,0 l/m N 0,00 h 44 W/m 1,2 km/h (1 Bft)
26.11.2015 10:00 1,6 C 98 % 1013,6 hPa 0,0 l/m W-SW 0,00 h 76 W/m 0,7 km/h (0 Bft)
26.11.2015 11:00 2,2 C 98 % 1014,1 hPa 0,0 l/m W-SW 0,17 h 141 W/m 3,6 km/h (1 Bft)
26.11.2015 12:00 2,8 C 97 % 1014,4 hPa 0,0 l/m W-SW 0,00 h 70 W/m 5,5 km/h (1 Bft)
26.11.2015 13:00 3,2 C 96 % 1014,7 hPa 0,0 l/m N 0,00 h 118 W/m 9,1 km/h (2 Bft)
26.11.2015 14:00 3,3 C 93 % 1015,1 hPa 0,0 l/m N-NO 0,00 h 60 W/m 10,3 km/h (2 Bft)
26.11.2015 15:00 2,9 C 92 % 1015,7 hPa 0,0 l/m N-NO 0,00 h 33 W/m 9,7 km/h (2 Bft)
26.11.2015 16:00 2,4 C 93 % 1016,6 hPa 0,0 l/m N-NO 0,00 h 9 W/m 5,9 km/h (2 Bft)
26.11.2015 17:00 1,9 C 94 % 1017,4 hPa 0,0 l/m N 0,00 h 0 W/m 1,2 km/h (1 Bft)
26.11.2015 18:00 1,7 C 94 % 1018,2 hPa 0,0 l/m N 0,00 h 0 W/m 0,4 km/h (0 Bft)
26.11.2015 19:00 1,6 C 95 % 1018,9 hPa 0,0 l/m N 0,00 h 0 W/m 0,8 km/h (0 Bft)
26.11.2015 20:00 1,5 C 95 % 1019,5 hPa 0,0 l/m N-NO 0,00 h 0 W/m 3,0 km/h (1 Bft)
26.11.2015 21:00 1,1 C 95 % 1019,5 hPa 0,0 l/m N 0,00 h 0 W/m 1,6 km/h (1 Bft)
26.11.2015 22:00 1,0 C 96 % 1019,8 hPa 0,0 l/m NO 0,00 h 0 W/m 0,0 km/h (0 Bft)
26.11.2015 23:00 1,2 C 96 % 1019,9 hPa 0,4 l/m NO 0,00 h 0 W/m 1,9 km/h (1 Bft)
27.11.2015 00:00 1,3 C 97 % 1020,2 hPa 0,2 l/m NO 0,00 h 0 W/m 1,9 km/h (1 Bft)
27.11.2015 01:00 1,3 C 97 % 1020,0 hPa 0,2 l/m NO 0,00 h 0 W/m 3,6 km/h (1 Bft)
27.11.2015 02:00 1,2 C 97 % 1019,7 hPa 0,2 l/m N 0,00 h 0 W/m 0,3 km/h (0 Bft)
27.11.2015 03:00 1,1 C 97 % 1019,5 hPa 0,0 l/m N 0,00 h 0 W/m 0,0 km/h (0 Bft)
27.11.2015 04:00 1,0 C 97 % 1019,4 hPa 0,0 l/m N 0,00 h 0 W/m 1,2 km/h (1 Bft)
27.11.2015 05:00 0,9 C 97 % 1019,2 hPa 0,2 l/m NO 0,00 h 0 W/m 3,5 km/h (1 Bft)
27.11.2015 06:00 0,6 C 97 % 1019,2 hPa 0,0 l/m O 0,00 h 0 W/m 4,0 km/h (1 Bft)
27.11.2015 07:00 -0,0 C 96 % 1019,1 hPa 0,0 l/m O 0,00 h 8 W/m 2,7 km/h (1 Bft)
27.11.2015 08:00 -0,3 C 96 % 1019,2 hPa 0,0 l/m O 0,00 h 28 W/m 3,1 km/h (1 Bft)
27.11.2015 09:00 -0,0 C 96 % 1019,0 hPa 0,0 l/m O 0,00 h 70 W/m 6,0 km/h (2 Bft)
27.11.2015 10:00 0,3 C 96 % 1018,6 hPa 0,0 l/m O 0,00 h 75 W/m 12,5 km/h (3 Bft)
27.11.2015 11:00 0,8 C 94 % 1018,1 hPa 0,2 l/m O-NO 0,25 h 186 W/m 12,9 km/h (3 Bft)
27.11.2015 12:00 1,4 C 91 % 1017,5 hPa 0,2 l/m O-NO 0,17 h 122 W/m 12,8 km/h (3 Bft)
27.11.2015 13:00 1,4 C 89 % 1016,9 hPa 0,0 l/m O-NO 0,00 h 71 W/m 9,5 km/h (2 Bft)
27.11.2015 14:00 1,6 C 88 % 1016,5 hPa 0,0 l/m O-SO 0,00 h 65 W/m 11,7 km/h (2 Bft)
27.11.2015 15:00 1,3 C 85 % 1016,2 hPa 0,0 l/m SO 0,00 h 41 W/m 9,4 km/h (2 Bft)
27.11.2015 16:00 0,9 C 86 % 1016,1 hPa 0,0 l/m SO 0,00 h 8 W/m 7,0 km/h (2 Bft)
27.11.2015 17:00 0,7 C 85 % 1016,0 hPa 0,0 l/m SO 0,00 h 0 W/m 5,3 km/h (1 Bft)
27.11.2015 18:00 0,7 C 85 % 1015,8 hPa 0,0 l/m SO 0,00 h 0 W/m 5,2 km/h (1 Bft)
27.11.2015 19:00 0,6 C 86 % 1015,3 hPa 0,0 l/m N 0,00 h 0 W/m 0,9 km/h (0 Bft)
27.11.2015 20:00 0,4 C 87 % 1014,9 hPa 0,0 l/m SO 0,00 h 0 W/m 1,5 km/h (1 Bft)
27.11.2015 21:00 0,4 C 87 % 1014,6 hPa 0,0 l/m SO 0,00 h 0 W/m 2,7 km/h (1 Bft)
27.11.2015 22:00 0,2 C 86 % 1014,4 hPa 0,0 l/m S-SW 0,00 h 0 W/m 6,2 km/h (2 Bft)
27.11.2015 23:00 0,2 C 84 % 1014,1 hPa 0,0 l/m W-SW 0,00 h 0 W/m 7,2 km/h (2 Bft)
28.11.2015 00:00 0,2 C 83 % 1014,1 hPa 0,0 l/m W-SW 0,00 h 0 W/m 11,8 km/h (2 Bft)
28.11.2015 01:00 0,2 C 83 % 1013,8 hPa 0,0 l/m W-SW 0,00 h 0 W/m 10,5 km/h (2 Bft)
28.11.2015 02:00 0,1 C 82 % 1013,7 hPa 0,0 l/m W-SW 0,00 h 0 W/m 15,3 km/h (3 Bft)
28.11.2015 03:00 -0,5 C 83 % 1013,4 hPa 0,0 l/m W-SW 0,00 h 0 W/m 8,8 km/h (2 Bft)
28.11.2015 04:00 -0,9 C 86 % 1013,1 hPa 0,0 l/m SW 0,00 h 0 W/m 14,1 km/h (3 Bft)
28.11.2015 05:00 -0,6 C 88 % 1013,1 hPa 0,0 l/m W-SW 0,00 h 0 W/m 21,2 km/h (4 Bft)
28.11.2015 06:00 -0,3 C 87 % 1012,9 hPa 0,0 l/m SW 0,00 h 0 W/m 19,4 km/h (3 Bft)
28.11.2015 07:00 -0,0 C 88 % 1013,3 hPa 0,0 l/m SW 0,00 h 0 W/m 17,3 km/h (3 Bft)
28.11.2015 08:00 -0,3 C 92 % 1013,9 hPa 0,4 l/m SW 0,00 h 6 W/m 14,9 km/h (3 Bft)
28.11.2015 09:00 -0,2 C 94 % 1014,6 hPa 0,0 l/m SW 0,00 h 8 W/m 17,3 km/h (3 Bft)
28.11.2015 10:00 0,1 C 96 % 1015,4 hPa 1,2 l/m W-SW 0,00 h 11 W/m 22,4 km/h (4 Bft)
28.11.2015 11:00 0,5 C 96 % 1016,5 hPa 0,4 l/m W-SW 0,00 h 14 W/m 27,2 km/h (4 Bft)
28.11.2015 12:00 0,9 C 96 % 1017,3 hPa 0,6 l/m W-SW 0,08 h 80 W/m 21,4 km/h (4 Bft)
28.11.2015 13:00 1,6 C 95 % 1017,6 hPa 0,0 l/m W-SW 0,50 h 189 W/m 19,0 km/h (3 Bft)
28.11.2015 14:00 1,5 C 94 % 1018,3 hPa 0,0 l/m W 0,08 h 81 W/m 20,2 km/h (4 Bft)
28.11.2015 15:00 1,6 C 94 % 1019,2 hPa 0,0 l/m W-SW 0,00 h 56 W/m 15,3 km/h (3 Bft)
28.11.2015 16:00 1,4 C 94 % 1019,9 hPa 0,0 l/m W-SW 0,08 h 10 W/m 13,8 km/h (3 Bft)
28.11.2015 17:00 1,3 C 94 % 1020,9 hPa 0,0 l/m W-SW 0,00 h 0 W/m 13,4 km/h (3 Bft)
28.11.2015 18:00 1,3 C 95 % 1021,4 hPa 0,0 l/m W 0,00 h 0 W/m 11,0 km/h (2 Bft)
28.11.2015 19:00 1,3 C 94 % 1021,9 hPa 0,0 l/m W-SW 0,00 h 0 W/m 15,3 km/h (3 Bft)
28.11.2015 20:00 0,8 C 93 % 1022,5 hPa 0,0 l/m W-SW 0,00 h 0 W/m 16,8 km/h (3 Bft)
28.11.2015 21:00 0,4 C 92 % 1022,9 hPa 0,0 l/m W-SW 0,00 h 0 W/m 20,6 km/h (4 Bft)
28.11.2015 22:00 0,1 C 92 % 1023,2 hPa 0,0 l/m W-SW 0,00 h 0 W/m 12,2 km/h (2 Bft)
28.11.2015 23:00 -0,3 C 93 % 1023,2 hPa 0,0 l/m W-SW 0,00 h 0 W/m 12,2 km/h (2 Bft)
29.11.2015 00:00 -0,2 C 93 % 1023,1 hPa 0,0 l/m SW 0,00 h 0 W/m 11,3 km/h (2 Bft)
29.11.2015 01:00 -0,3 C 93 % 1022,8 hPa 0,0 l/m SW 0,00 h 0 W/m 12,5 km/h (3 Bft)
29.11.2015 02:00 -0,3 C 93 % 1022,4 hPa 0,0 l/m SW 0,00 h 0 W/m 14,2 km/h (3 Bft)
29.11.2015 03:00 0,2 C 92 % 1021,7 hPa 0,0 l/m SW 0,00 h 0 W/m 13,7 km/h (3 Bft)
29.11.2015 04:00 0,7 C 90 % 1021,5 hPa 0,0 l/m W-SW 0,00 h 0 W/m 19,8 km/h (4 Bft)
29.11.2015 05:00 1,4 C 87 % 1021,5 hPa 0,0 l/m W-SW 0,00 h 0 W/m 22,5 km/h (4 Bft)
29.11.2015 06:00 1,9 C 83 % 1021,4 hPa 0,0 l/m SW 0,00 h 0 W/m 29,5 km/h (5 Bft)
29.11.2015 07:00 2,1 C 81 % 1021,4 hPa 0,0 l/m SW 0,00 h 0 W/m 29,0 km/h (5 Bft)
29.11.2015 08:00 2,4 C 81 % 1021,4 hPa 0,0 l/m W-SW 0,00 h 13 W/m 28,4 km/h (4 Bft)
29.11.2015 09:00 2,9 C 83 % 1021,9 hPa 0,2 l/m W-SW 0,00 h 21 W/m 40,4 km/h (6 Bft)
29.11.2015 10:00 2,4 C 92 % 1022,0 hPa 0,2 l/m W-SW 0,00 h 56 W/m 36,5 km/h (5 Bft)
29.11.2015 11:00 2,8 C 93 % 1021,7 hPa 0,0 l/m W-SW 0,00 h 72 W/m 39,4 km/h (6 Bft)
29.11.2015 12:00 3,3 C 93 % 1021,5 hPa 0,0 l/m W-SW 0,00 h 61 W/m 40,4 km/h (6 Bft)
29.11.2015 13:00 3,8 C 92 % 1021,4 hPa 0,0 l/m W-SW 0,00 h 52 W/m 38,3 km/h (5 Bft)
29.11.2015 14:00 4,2 C 92 % 1021,5 hPa 0,0 l/m W-SW 0,00 h 23 W/m 30,5 km/h (5 Bft)
29.11.2015 15:00 4,6 C 92 % 1021,6 hPa 0,0 l/m SW 0,00 h 17 W/m 30,3 km/h (5 Bft)
29.11.2015 16:00 5,0 C 92 % 1022,1 hPa 0,0 l/m W-SW 0,00 h 5 W/m 35,8 km/h (5 Bft)
29.11.2015 17:00 5,3 C 93 % 1022,1 hPa 0,0 l/m W-SW 0,00 h 0 W/m 39,2 km/h (6 Bft)
29.11.2015 18:00 5,8 C 92 % 1022,4 hPa 0,0 l/m SW 0,00 h 0 W/m 36,1 km/h (5 Bft)
29.11.2015 19:00 6,1 C 91 % 1022,6 hPa 0,0 l/m W-SW 0,00 h 0 W/m 38,1 km/h (5 Bft)
29.11.2015 20:00 6,4 C 90 % 1022,6 hPa 0,0 l/m W-SW 0,00 h 0 W/m 38,3 km/h (5 Bft)
29.11.2015 21:00 6,9 C 87 % 1022,8 hPa 0,0 l/m W-SW 0,00 h 0 W/m 40,0 km/h (6 Bft)
29.11.2015 22:00 7,1 C 86 % 1023,0 hPa 0,0 l/m W-SW 0,00 h 0 W/m 37,8 km/h (5 Bft)
29.11.2015 23:00 7,3 C 86 % 1023,3 hPa 0,0 l/m W 0,00 h 0 W/m 37,8 km/h (5 Bft)
Min-Datum _ 24.11.15 23.11.15 25.11.15 - - - - 23.11.15
_ Min-Zeit 07:45 15:20 16:00 - - - - 04:10
Minimum _ -6,8 C 73 % 1006,9 hPa - - - - 0,0 km/h (0 Bft)
Max-Datum _ 29.11.15 23.11.15 24.11.15 28.11.15 - 23.11.15 27.11.15 29.11.15
_ Max-Zeit 23:15 00:00 08:30 10:00 - 11:25 11:50 09:30
Maximum _ 7,4 C 100 % 1025,7 hPa 1,2 l/m - 0,08 h 478 W/m 54,7 km/h
W (7 Bft)
Durchschnitt _ 0,5 C 92 % 1017,8 hPa #8,2 l/m W-SW #7:45 h 71 W/m 10,6 km/h (2 Bft)